This is the latest recevied weather packets stored in our database for station/object OE3WYC-1. If no packets are shown the sender has not sent any weather packets the latest 10 day(s).
| Time | Temp. | Humidity | Pressure | Rain* | Wind** | Luminosity | Snow |
|---|---|---|---|---|---|---|---|
| 1777458006 | 15.56° C | 30% | 1023.3 hPa | 0 mm | - | - | - |
| 1777456806 | 15° C | 33% | 1023.5 hPa | 0 mm | - | - | - |
| 1777455306 | 14.44° C | 31% | 1023.6 hPa | 0 mm | - | - | - |
| 1777453807 | 13.89° C | 32% | 1023.4 hPa | 0 mm | - | - | - |
| 1777453207 | 13.89° C | 32% | 1023.5 hPa | 0 mm | - | - | - |
| 1777452008 | 13.89° C | 33% | 1023.5 hPa | 0 mm | - | - | - |
| 1777451706 | 13.33° C | 35% | 1023.5 hPa | 0 mm | - | - | - |
| 1777448406 | 12.22° C | 39% | 1023.4 hPa | 0 mm | - | - | - |
| 1777447507 | 11.67° C | 39% | 1023.4 hPa | 0 mm | - | - | - |
| 1777446306 | 11.11° C | 40% | 1023.5 hPa | 0 mm | - | - | - |
| 1777442706 | 9.44° C | 43% | 1023.5 hPa | 0 mm | - | - | - |
| 1777439407 | 8.33° C | 45% | 1023.1 hPa | 0 mm | - | - | - |
| 1777435807 | 7.78° C | 44% | 1022.4 hPa | 0 mm | - | - | - |
| 1777433706 | 7.78° C | 43% | 1022.3 hPa | 0 mm | - | - | - |
| 1777432506 | 8.33° C | 41% | 1022.2 hPa | 0 mm | - | - | - |
| 1777429806 | 8.33° C | 41% | 1021.8 hPa | 0 mm | - | - | - |
| 1777427706 | 8.89° C | 40% | 1021.8 hPa | 0 mm | - | - | - |
| 1777425307 | 9.44° C | 39% | 1021.5 hPa | 0 mm | - | - | - |
| 1777422607 | 9.44° C | 41% | 1021.6 hPa | 0 mm | - | - | - |
| 1777422007 | 9.44° C | 42% | 1021.7 hPa | 0 mm | - | - | - |
| 1777420807 | 10° C | 42% | 1021.6 hPa | 0 mm | - | - | - |
| 1777420207 | 10° C | 42% | 1021.4 hPa | 0 mm | - | - | - |
| 1777419606 | 10° C | 42% | 1021.4 hPa | 0 mm | - | - | - |
| 1777419006 | 10° C | 42% | 1021.4 hPa | 0 mm | - | - | - |
| 1777416907 | 10.56° C | 40% | 1021.1 hPa | 0 mm | - | - | - |
* Rain latest hour (hover to see other rain measurements)
** Current wind speed in m/s (hover to see current wind gust speed)